轨道通信卫星FM09星 (ORBCOMM FM09)

导读

ORBCOMM FM 9是ORBCOMM低轨卫星星座中的一颗卫星,由ORB(轨道通信公司)于1997年12月23日发射入轨。作为全球低轨物联网通信星座的组成部分,它运行于近地轨道,依托VHF/UHF频段提供窄带数据传输服务,面向机器对机器通信场景,支撑全球范围的低成本物联网连接,助力偏远地区设备监控、船舶通信等应用。

基本信息
目录编号:
25116
目录名称:
ORBCOMM FM 9
国际标识:
1997-084E
轨道中心:
EARTH
卫星名称:
轨道通信卫星FM09星
卫星全名:
轨道通信卫星FM09星 (ORBCOMM FM09)
卫星状态:
在轨 (已飞行10489 天)
发射日期:
1997-12-23 UTC
国别 :
(ORB)
星等 :
--
该卫星已列入 空间交会检测服务 Space Conjunction Data Service (SCDS) ,当前飞行风险评估等级: 无高风险
轨道信息
数据来源 国际轨道数据
星历时间: 2026-09-10T22:29:16+0800
23小时前
查看轨道信息
半长轴: 7114.607km
偏心率: 0.0004725
轨道倾角: 45.016°
近地点辐角 310.343°
升交点赤经 8.538°
平近点角 49.701°
近地点: 733.108km
远地点: 739.832km
周期: 99.537分钟
每日圈数: 14.466931
详细信息
固有亮度:
8
最大亮度:
6.9
平衡模式:
三轴稳定
覆盖范围:
全球
运营商:
轨道通信公司
运营商所在国:
美国
制造商(研发单位):
轨道ATK公司
制造商所在国:
美国
使用方式:
暂无
卫星简介
轨道通信FM(Orbcomm FM)是一系列低地球轨道通信卫星,由美国卫星通信公司 Orbcomm运营。 截至2015年12月,已有63颗此类卫星绕地球运行。该卫星已退役。
2D轨道图
3D轨道图
轨道高度分析图
轨道倾角分析图
轨道综合分析图
查看轨道综合分析图
交会数据列表
事件ID 空间交会对象 最接近时刻(TCA) 交会距离 交会风险概率(CRP) 交会风险指数(CRI) 操作
CDM_260910-031702-511603-165621
2026-09-10T
03:17:58+0000
1.613 km
极远距离
4.543876E-6 低风险 0.48
CDM_260911-035900-359702-511627
OAO 2 (3597)
2026-09-11T
03:59:31+0000
2.359 km
极远距离
9.983374E-7 极低风险 0.35
与全量物体交会距离演化趋势
与全量物体交会风险概率演化趋势